sat.trackr.live / text

‹ back to catalog

GLOBAL-19

NORAD 55982 · 2023-041B

PAYLOAD ACTIVE UNKNOWN

§ Identity

Operator
Country
US
Launch date
2023-03-24
Launch site
RLLB
Launch vehicle
Mass (kg)
RCS (m²)

External: N2YO · Heavens-Above · Gunter

§ Orbital elements

Epoch: 2026-09-21T07:46:43.900608Z

Period
93.65 min
Inclination
42.0028°
Eccentricity
0.0008709
Mean motion
15.37669204 rev/d
Perigee alt
447.1 km
Apogee alt
459.0 km
Semi-major
6,831.1 km
B*
2.3062e-4
RAAN
1.1065°
Arg perigee
317.7858°
Mean anomaly
42.2310°
Rev number
19,673

§ Raw data

GLOBAL-191 55982U 23041B   26264.32411922  .00008473  00000+0  23062-3 0  99902 55982  42.0028   1.1065 0008709 317.7858  42.2310 15.37669204196734

JSON: /api/v1/satellites/55982 · /tle

For live sub-satellite position, see the globe view (requires WebGL).

§ Visibility from observer

Set your observer location to see the next 7 days of passes ≥ 10°. The values pass through the URL so the page stays shareable.

No JS? Fill the form by hand. The geolocation button needs JavaScript.

§ Radio — SatNOGS DB

ModeDescriptionDownlinkUplink
FM UHF Unknown 401.015 MHz

1 transmitter · refreshed weekly from db.satnogs.org